TimeCST,TemperatureF,Dew PointF,Humidity,Sea Level PressureIn,VisibilityMPH,Wind Direction,Wind SpeedMPH,Gust SpeedMPH,PrecipitationIn,Events,Conditions,WindDirDegrees,DateUTC
12:56 AM,31.1,28.0,88,30.33,10.0,South,6.9,-,N/A,,Clear,180,2012-12-31 06:56:00
1:56 AM,32.0,27.1,82,30.33,10.0,South,6.9,-,N/A,,Clear,170,2012-12-31 07:56:00
2:56 AM,31.1,27.1,85,30.32,10.0,South,5.8,-,N/A,,Clear,170,2012-12-31 08:56:00
3:56 AM,32.0,27.1,82,30.31,10.0,South,5.8,-,N/A,,Clear,170,2012-12-31 09:56:00
4:56 AM,32.9,28.0,82,30.30,10.0,South,9.2,-,N/A,,Clear,190,2012-12-31 10:56:00
5:56 AM,32.9,28.0,82,30.31,10.0,South,9.2,-,N/A,,Clear,190,2012-12-31 11:56:00
6:56 AM,32.9,28.0,82,30.28,10.0,South,8.1,-,N/A,,Clear,190,2012-12-31 12:56:00
7:56 AM,32.9,29.1,86,30.27,10.0,South,4.6,-,N/A,,Overcast,180,2012-12-31 13:56:00
8:15 AM,33.8,30.2,87,30.28,6.0,SSW,5.8,-,0.00,Rain,Light Rain,200,2012-12-31 14:15:00
8:56 AM,32.9,30.0,89,30.28,3.0,South,9.2,-,0.00,Rain,Light Freezing Rain,190,2012-12-31 14:56:00
9:02 AM,33.8,30.2,87,30.26,5.0,South,9.2,-,0.00,Rain,Light Rain,190,2012-12-31 15:02:00
9:08 AM,33.8,30.2,87,30.26,7.0,South,9.2,-,0.00,Rain,Light Rain,190,2012-12-31 15:08:00
9:56 AM,34.0,30.0,85,30.27,10.0,South,8.1,-,0.00,,Mostly Cloudy,190,2012-12-31 15:56:00
10:29 AM,35.6,30.2,81,30.25,10.0,South,9.2,-,N/A,,Scattered Clouds,190,2012-12-31 16:29:00
10:56 AM,34.9,31.1,86,30.25,10.0,SSW,8.1,-,N/A,,Mostly Cloudy,200,2012-12-31 16:56:00
11:56 AM,36.0,31.1,82,30.23,10.0,South,6.9,-,N/A,,Mostly Cloudy,190,2012-12-31 17:56:00
12:56 PM,37.9,31.1,76,30.19,10.0,South,4.6,-,N/A,,Mostly Cloudy,180,2012-12-31 18:56:00
1:56 PM,38.8,32.0,76,30.16,10.0,South,8.1,-,N/A,,Partly Cloudy,190,2012-12-31 19:56:00
2:56 PM,38.8,32.9,79,30.17,10.0,SSW,8.1,-,N/A,,Clear,210,2012-12-31 20:56:00
3:56 PM,38.8,32.9,79,30.16,10.0,SSW,5.8,-,0.00,,Scattered Clouds,200,2012-12-31 21:56:00
4:56 PM,37.9,32.9,82,30.14,10.0,South,6.9,-,N/A,,Mostly Cloudy,180,2012-12-31 22:56:00
5:56 PM,37.9,32.9,82,30.15,10.0,South,6.9,-,N/A,,Overcast,190,2012-12-31 23:56:00
6:56 PM,36.9,34.0,89,30.15,10.0,South,5.8,-,0.00,Rain,Light Rain,190,2013-01-01 00:56:00
7:56 PM,36.9,34.0,89,30.13,8.0,South,6.9,-,0.02,Rain,Light Rain,180,2013-01-01 01:56:00
8:56 PM,36.0,34.9,96,30.11,7.0,South,6.9,-,0.02,Rain,Light Rain,170,2013-01-01 02:56:00
9:43 PM,35.6,35.6,100,30.10,3.0,Calm,Calm,-,0.02,Rain,Light Rain,0,2013-01-01 03:43:00
9:56 PM,36.0,34.9,96,30.10,4.0,SE,4.6,-,0.02,Rain,Light Rain,140,2013-01-01 03:56:00
10:14 PM,35.6,35.6,100,30.09,2.5,SSE,4.6,-,0.02,Rain,Rain,150,2013-01-01 04:14:00
10:56 PM,36.0,36.0,100,30.10,2.5,SSE,4.6,-,0.04,Rain,Light Rain,160,2013-01-01 04:56:00
11:29 PM,35.6,35.6,100,30.08,3.0,Calm,Calm,-,0.00,,Overcast,0,2013-01-01 05:29:00
11:56 PM,36.0,36.0,100,30.09,1.8,Calm,Calm,-,0.00,,Overcast,0,2013-01-01 05:56:00